Location: Hurecourt
(47.9030°N, 6.0653°E)
Time: 21:06:09
(UTC+00:00)

Cosmos 1515 - Pass Details

Date: 14 July 2020
Orbit: 507 x 515 km, 82.5° (Epoch: 14 August)

Event Time Altitude Azimuth Distance (km) Brightness Sun altitude
Rises 01:08:53 0° 348° (NNW) 2,642 8.3 -17.8°
Reaches altitude 10° 01:11:02 10° 345° (NNW) 1,751 7.2 -17.6°
Maximum altitude 01:14:50 66° 264° (W) 565 3.7 -17.4°
Enters shadow 01:16:00 41° 197° (SSW) 757 4.0 -17.3°
